Weather History for Orlando International, FL

Change the Weather History Date:

Friday, October 25, 2013

  Actual Average Record
Temperature  
Mean Temperature 70 °F 73 °F  
Max Temperature 81 °F 83 °F 96 °F (1919)
Min Temperature 58 °F 64 °F 38 °F (1937)
Degree Days  
Heating Degree Days 0 0  
Month to date heating degree days 0 0  
Since 1 July heating degree days 0 0  
Cooling Degree Days 5 9  
Month to date cooling degree days 330 284  
Year to date cooling degree days 3315 3160  
Growing Degree Days 19 (Base 50)    
Moisture  
Dew Point 54 °F    
Average Humidity 63    
Maximum Humidity 90    
Minimum Humidity 35    
Precipitation  
Precipitation 0.00 in 0.07 in 1.72 in (1921)
Month to date precipitation 0.15 2.87  
Year to date precipitation 41.52 45.54  
Sea Level Pressure  
Sea Level Pressure 30.20 in    
Wind  
Wind Speed 8 mph (North)    
Max Wind Speed 14 mph    
Max Gust Speed 18 mph    
Visibility 10 miles    
Events      
T = Trace of Precipitation, MM = Missing Value Source: NWS Daily Summary

Daily Weather History Graph

Daily Weather History Graph

Search for Another Location

Airport:

Trip Planner

Search our weather history database for the weather conditions in past years. The results will help you decide how hot, cold, wet, or windy it might be!

Date:

Astronomy

Oct. 25, 2013 Rise Set
Actual Time 7:32 AM EDT 6:45 PM EDT
Civil Twilight 7:08 AM EDT 7:09 PM EDT
Nautical Twilight 6:40 AM EDT 7:37 PM EDT
Astronomical Twilight 6:13 AM EDT 8:04 PM EDT
Moon No Moon Rise 1:04 PM EDT (10/25)
Length of Visible Light 12h 01m
Length of Day
11h 13m
Waning Gibbous, 62% of the Moon is Illuminated
Oct 25
Waning Gibbous
Oct 26
Last Quarter
Nov 3
New
Nov 10
First Quarter
Nov 17
Full

Hourly Weather History & Observations

Time (EDT) Temp. Dew Point Humidity Pressure Visibility Wind Dir Wind Speed Gust Speed Precip Events Conditions
12:53 AM 62.1 °F 57.9 °F 86% 30.18 in 10.0 mi NNW 4.6 mph - N/A   Mostly Cloudy
1:53 AM 61.0 °F 57.0 °F 87% 30.17 in 10.0 mi North 6.9 mph - N/A   Mostly Cloudy
2:53 AM 61.0 °F 57.0 °F 87% 30.17 in 10.0 mi North 5.8 mph - N/A   Mostly Cloudy
3:53 AM 60.1 °F 55.9 °F 86% 30.17 in 10.0 mi North 5.8 mph - N/A   Partly Cloudy
4:53 AM 59.0 °F 55.9 °F 90% 30.18 in 10.0 mi North 6.9 mph - N/A   Partly Cloudy
5:53 AM 59.0 °F 55.9 °F 90% 30.18 in 10.0 mi North 5.8 mph - N/A   Partly Cloudy
6:53 AM 59.0 °F 55.9 °F 90% 30.20 in 10.0 mi North 6.9 mph - N/A   Partly Cloudy
7:53 AM 59.0 °F 55.9 °F 90% 30.22 in 10.0 mi North 5.8 mph - N/A   Partly Cloudy
8:53 AM 64.9 °F 55.9 °F 73% 30.23 in 10.0 mi North 8.1 mph - N/A   Partly Cloudy
9:53 AM 70.0 °F 52.0 °F 53% 30.25 in 10.0 mi North 10.4 mph - N/A   Partly Cloudy
10:53 AM 73.9 °F 46.9 °F 38% 30.25 in 10.0 mi North 11.5 mph - N/A   Partly Cloudy
11:53 AM 75.9 °F 46.9 °F 36% 30.24 in 10.0 mi North 9.2 mph - N/A   Partly Cloudy
12:53 PM 78.1 °F 48.9 °F 36% 30.21 in 10.0 mi North 8.1 mph - N/A   Partly Cloudy
1:53 PM 79.0 °F 51.1 °F 38% 30.19 in 10.0 mi North 6.9 mph 17.3 mph N/A   Partly Cloudy
2:53 PM 80.1 °F 52.0 °F 38% 30.18 in 10.0 mi NNW 8.1 mph - N/A   Clear
3:53 PM 81.0 °F 52.0 °F 36% 30.17 in 10.0 mi North 11.5 mph - N/A   Clear
4:53 PM 80.1 °F 51.1 °F 36% 30.17 in 10.0 mi North 6.9 mph - N/A   Clear
5:53 PM 78.1 °F 48.9 °F 36% 30.17 in 10.0 mi North 9.2 mph - N/A   Clear
6:53 PM 73.9 °F 51.1 °F 45% 30.17 in 10.0 mi NNE 8.1 mph - N/A   Clear
7:53 PM 69.1 °F 55.9 °F 63% 30.19 in 10.0 mi ENE 9.2 mph - N/A   Clear
8:53 PM 68.0 °F 57.0 °F 68% 30.21 in 10.0 mi NE 9.2 mph - N/A   Clear
9:53 PM 66.9 °F 57.0 °F 70% 30.22 in 10.0 mi NNE 8.1 mph - N/A   Clear
10:53 PM 64.9 °F 57.0 °F 75% 30.24 in 10.0 mi NNE 9.2 mph - N/A   Clear
11:53 PM 64.0 °F 57.0 °F 78% 30.23 in 10.0 mi NNE 9.2 mph - N/A   Clear